Wind_Speed
13 16 18 20 22 23 24 23 22 21 20 20 17 15 16 16 14 11 7 7 6 5 4 4 4 8 12 11 10 17 18 7 7 9 12 9 8 6 5 3 8 7 9 15 20
11 12 15 18 21 22 23 25 25 25 24 23 21 18 15 16 17 14 9 10 7 6 4 2 2 6 8 8 7 8 5 13 3 9 16 12 9 5 4 4 4 4 13 17 20
10 12 13 14 16 19 22 24 26 27 27 26 24 21 18 16 17 16 14 12 10 9 5 2 2 4 6 9 10 6 6 5 2 7 18 11 11 9 9 4 4 8 10 18 21
8 10 11 13 14 16 17 20 24 27 26 27 26 24 22 19 13 18 19 14 13 11 5 2 1 5 11 13 10 7 4 2 3 2 13 15 13 5 13 7 4 5 4 14 17
10 10 11 12 13 14 16 18 20 22 26 26 26 26 26 25 21 10 21 18 16 15 9 7 7 3 8 15 13 4 6 6 3 5 3 13 20 9 14 12 9 5 5 10 14
11 12 13 13 13 14 15 17 18 21 22 23 26 27 28 28 22 19 20 23 20 18 14 10 5 4 5 12 10 4 6 6 4 4 8 4 5 10 12 17 15 8 5 7 12
13 13 13 14 14 14 15 16 17 19 22 21 22 27 30 21 23 27 22 25 26 21 19 11 7 7 3 5 7 13 3 9 5 5 5 5 6 10 8 14 18 10 6 9 13
14 13 14 14 14 14 16 16 16 19 21 21 22 23 28 23 27 26 29 25 25 23 21 13 11 10 3 3 2 3 3 7 5 8 4 5 9 9 14 14 14 12 10 12 15
16 16 16 15 14 14 15 15 16 17 19 21 22 24 18 21 26 25 26 30 25 23 24 17 16 14 12 5 4 10 7 13 11 11 7 9 11 8 19 17 17 18 13 16 17
19 18 18 17 16 15 15 14 16 17 18 20 21 19 19 16 25 30 30 27 29 29 26 24 19 20 17 13 4 7 3 9 15 9 10 8 7 9 15 21 13 16 17 19 20
20 19 19 19 18 16 16 13 16 18 21 20 15 18 13 21 18 28 31 29 29 29 35 30 25 27 24 17 11 11 9 12 17 12 7 4 4 13 11 26 21 16 18 19 20
19 19 18 19 18 17 16 14 18 20 20 19 19 20 18 18 22 23 35 34 34 33 26 35 34 28 25 18 14 12 12 11 14 9 7 5 6 11 16 23 19 17 19 20 19
21 20 17 18 17 17 12 13 15 18 21 15 19 17 20 26 20 26 35 38 36 34 34 32 33 30 27 20 18 16 16 12 13 17 16 9 12 14 12 20 23 23 21 19 21
19 18 18 15 16 16 13 9 12 12 12 6 6 9 16 24 28 27 31 35 41 40 35 33 30 29 31 26 19 21 19 12 14 14 9 4 4 8 15 12 18 19 20 21 23
20 18 16 13 14 14 13 9 10 7 4 4 6 3 7 22 23 29 26 31 32 34 37 34 32 33 32 29 22 30 18 15 16 17 16 8 5 11 13 18 19 24 24 21 20
21 17 14 12 12 10 10 9 6 4 5 7 7 12 9 11 27 15 30 27 25 22 29 33 27 26 34 28 25 27 18 16 12 16 12 17 10 16 13 16 20 19 20 19 25
19 20 14 11 12 9 8 6 3 4 9 16 8 10 7 8 21 18 28 25 24 25 28 24 27 30 22 34 30 27 18 3 2 3 7 11 13 33 14 14 15 23 20 18 18
17 13 11 8 7 7 6 4 3 9 13 15 15 14 3 5 12 27 28 18 29 20 14 28 26 32 27 33 35 30 25 11 6 4 5 12 11 24 18 17 18 21 21 22 18
9 11 9 8 8 7 4 2 2 13 16 16 12 9 14 5 4 11 18 21 21 20 20 13 19 20 36 32 29 28 25 20 15 13 2 8 18 18 11 17 20 25 22 27 25
3 9 10 14 13 12 11 9 12 14 9 5 9 9 14 12 7 5 7 5 15 23 20 25 9 12 23 34 32 29 14 13 15 6 5 8 11 11 9 10 20 27 29 23 25
4 3 7 11 10 10 11 11 8 10 6 4 6 7 8 12 10 7 6 7 10 2 25 24 26 19 21 32 37 34 28 21 15 10 7 2 10 21 19 13 18 28 29 27 21
5 2 6 7 8 9 9 8 6 8 7 7 7 9 9 11 8 1 3 4 10 10 1 21 15 26 24 23 22 30 29 25 25 14 10 12 19 10 16 18 19 20 21 21 23
1 2 2 4 3 6 7 8 8 12 11 9 9 11 12 13 7 3 3 5 7 7 9 6 15 21 21 23 26 26 24 21 20 20 27 13 8 9 13 23 23 19 14 17 22
3 4 5 7 6 6 9 11 11 13 16 16 17 16 15 15 12 7 8 9 7 3 4 4 5 19 27 24 15 14 19 18 15 19 23 27 25 19 16 22 24 22 17 20 16
5 4 7 8 8 9 10 12 13 15 13 16 17 19 19 19 17 16 13 10 8 8 4 3 8 5 13 22 15 8 11 15 15 7 22 25 25 23 22 20 26 22 21 21 18
8 3 5 9 8 8 11 15 17 16 21 17 17 17 18 18 17 20 17 9 10 8 9 5 5 7 6 9 8 11 6 3 6 11 11 23 28 25 25 27 25 16 22 20 21
10 5 4 8 8 10 13 14 19 23 13 17 19 21 19 20 22 21 21 16 13 10 4 4 5 9 7 6 8 8 9 9 10 8 16 25 30 27 32 36 31 26 23 20 21
Wind_Direction
258 255 251 247 246 247 247 247 245 244 244 247 243 242 230 225 227 217 213 223 247 291 339 41 117 58 39 45 49 81 54 100 146 161 155 178 179 138 135 192 116 118 132 154 151
274 267 262 259 255 251 249 248 249 246 244 243 244 241 240 229 227 213 212 213 232 257 286 349 74 15 37 35 15 8 89 56 93 168 158 175 173 173 191 139 101 96 138 152 146
285 279 274 268 264 259 255 253 251 248 245 243 242 241 239 237 229 217 216 210 214 239 254 19 14 38 18 9 5 1 359 21 221 237 177 179 177 196 196 175 33 24 150 150 143
294 287 282 276 272 267 262 257 253 252 249 243 242 239 235 232 229 221 211 212 212 222 233 221 238 51 357 359 321 331 16 9 252 169 204 191 192 168 202 202 124 30 165 151 146
301 294 288 282 276 271 267 262 258 254 251 247 242 239 236 230 216 212 213 207 208 211 208 222 205 301 354 358 349 341 264 224 236 317 163 216 220 262 196 194 157 148 163 158 154
312 303 295 287 280 274 268 264 262 259 256 250 244 240 236 232 217 211 204 212 209 207 205 214 238 259 329 5 6 22 193 211 177 124 40 52 100 262 189 189 182 183 158 176 165
320 312 305 298 292 283 274 264 261 260 256 253 250 243 241 231 221 212 200 208 212 207 209 210 233 228 323 78 37 65 101 177 203 166 309 167 194 231 218 190 179 193 183 189 179
328 320 311 304 297 291 281 273 262 256 257 253 249 248 246 233 228 217 207 203 212 208 212 214 219 221 189 30 196 265 271 201 241 234 228 214 280 246 177 170 190 189 193 195 195
328 323 315 309 304 296 284 277 269 262 256 254 251 251 252 240 228 226 216 211 212 212 210 214 215 218 221 206 220 177 231 229 248 220 225 254 297 245 202 183 189 187 193 198 202
329 324 317 311 306 298 289 282 274 267 258 251 249 250 236 225 219 212 217 207 213 216 212 216 215 222 226 231 195 151 103 343 322 284 256 299 267 210 208 192 195 180 189 198 204
333 328 320 312 309 300 291 282 273 266 258 252 246 233 235 223 225 213 211 210 206 211 216 218 215 220 223 231 229 240 286 310 318 270 275 276 132 193 186 181 201 194 193 195 204
337 331 325 314 308 301 298 290 279 276 269 267 260 244 207 205 212 202 198 198 201 210 214 216 220 217 223 229 231 247 278 290 315 280 244 257 249 213 218 202 206 207 199 194 195
326 326 323 313 306 297 297 297 299 299 300 269 261 259 216 221 212 200 196 199 202 206 215 220 220 218 225 228 232 244 254 271 289 285 259 272 264 240 250 226 214 212 212 206 207
330 322 311 306 299 294 289 297 311 311 304 317 292 248 241 229 223 197 198 203 207 211 213 227 222 224 227 232 229 249 235 266 290 281 238 318 277 241 228 236 226 213 211 210 209
334 329 307 300 291 283 289 286 304 312 324 24 1 258 272 222 227 205 200 203 208 212 213 221 224 220 222 223 224 233 247 272 295 259 257 272 273 280 204 222 242 223 220 218 223
349 336 313 299 287 288 272 270 276 247 263 4 48 7 297 226 213 202 203 206 214 211 218 223 218 221 225 223 221 232 252 271 276 253 248 263 250 281 237 251 219 196 193 214 229
351 355 335 307 289 289 262 269 226 239 353 340 330 340 276 257 203 201 198 206 206 209 218 217 218 218 213 223 221 232 241 261 237 205 227 258 257 254 230 273 252 220 188 187 213
344 357 357 340 327 308 292 220 236 0 2 1 1 16 27 235 230 218 224 202 205 212 228 225 228 212 213 218 219 234 234 202 187 213 238 244 239 252 265 275 253 223 220 200 205
1 12 11 20 4 8 5 166 149 358 345 360 8 14 20 71 61 224 211 218 218 225 218 205 224 231 212 216 218 230 232 228 243 263 257 246 259 277 285 266 247 223 215 210 202
349 6 38 64 67 69 58 64 34 351 343 32 4 6 1 7 40 78 159 34 244 241 232 217 220 218 221 215 218 229 220 197 211 176 212 254 254 248 273 280 210 197 209 200 212
348 13 61 50 35 42 43 45 28 22 17 13 333 320 4 359 2 11 67 68 35 254 226 226 224 220 204 212 220 224 227 226 228 218 186 183 274 251 261 279 202 196 209 217 216
329 87 54 29 22 28 22 19 330 323 349 3 335 329 341 337 349 308 311 5 7 33 266 225 239 229 224 228 230 232 231 230 218 205 216 253 240 267 241 199 209 210 218 240 233
50 145 237 243 300 320 318 325 316 301 310 320 306 302 309 326 329 322 263 293 337 7 13 325 221 221 235 238 242 237 227 223 225 230 232 223 244 236 226 189 190 201 189 221 234
235 239 237 244 283 308 301 298 308 311 309 306 303 298 295 295 295 283 289 273 267 311 355 317 272 224 225 241 229 222 231 227 224 224 222 229 245 247 248 219 208 216 210 220 238
338 282 238 268 271 305 320 313 312 315 313 306 293 290 294 297 292 292 283 261 246 253 246 229 268 241 197 221 207 182 180 198 214 223 219 224 233 229 230 221 203 205 204 217 210
358 324 246 257 282 294 297 301 311 320 324 314 299 290 292 291 283 276 279 280 244 199 213 195 243 233 238 193 182 197 190 214 210 214 210 207 223 210 204 199 200 198 185 199 210
10 3 245 274 290 301 307 318 326 327 325 312 301 298 290 278 272 261 257 250 243 268 214 232 224 228 217 197 185 228 238 239 221 201 200 201 216 214 192 189 193 205 196 187 188
Height
3143 3143 3143 3144 3145 3145 3146 3146 3148 3149 3150 3151 3153 3154 3156 3158 3160 3162 3164 3164 3163 3163 3163 3163 3161 3159 3160 3160 3159 3159 3157 3160 3162 3164 3165 3164 3167 3167 3168 3168 3168 3169 3169 3170 3169
3140 3140 3139 3140 3140 3141 3141 3142 3143 3145 3147 3148 3150 3151 3154 3155 3157 3160 3163 3163 3163 3163 3163 3162 3162 3162 3162 3162 3162 3162 3162 3161 3162 3164 3165 3167 3167 3168 3170 3170 3170 3171 3171 3172 3172
3138 3137 3137 3136 3136 3136 3136 3137 3138 3139 3141 3144 3145 3148 3151 3153 3155 3158 3160 3161 3163 3162 3162 3163 3162 3163 3163 3163 3163 3162 3164 3164 3164 3163 3164 3167 3166 3168 3170 3171 3171 3173 3174 3174 3175
3136 3135 3134 3133 3133 3132 3132 3133 3133 3133 3135 3138 3141 3143 3147 3150 3154 3154 3157 3160 3161 3162 3162 3163 3162 3164 3162 3162 3163 3163 3163 3164 3164 3164 3165 3165 3167 3167 3168 3171 3173 3175 3177 3176 3177
3135 3134 3132 3131 3130 3129 3129 3128 3128 3128 3130 3132 3135 3138 3142 3145 3149 3151 3153 3157 3159 3161 3162 3162 3163 3164 3164 3163 3162 3162 3163 3164 3164 3165 3165 3166 3165 3165 3166 3168 3172 3175 3177 3179 3180
3132 3131 3130 3129 3128 3127 3126 3125 3124 3124 3124 3126 3129 3132 3135 3139 3146 3148 3150 3153 3156 3159 3160 3162 3163 3164 3165 3164 3162 3159 3161 3164 3165 3165 3165 3165 3163 3166 3155 3165 3173 3175 3177 3179 3181
3130 3128 3127 3125 3124 3123 3122 3121 3121 3120 3120 3122 3123 3125 3128 3136 3139 3142 3146 3149 3153 3157 3159 3160 3161 3163 3164 3163 3163 3162 3164 3164 3164 3163 3163 3164 3164 3164 3164 3167 3170 3175 3178 3180 3182
3128 3126 3124 3122 3121 3119 3118 3117 3117 3116 3116 3117 3119 3120 3122 3129 3131 3137 3142 3146 3150 3154 3157 3159 3158 3160 3162 3164 3165 3164 3164 3164 3164 3162 3162 3163 3163 3162 3164 3167 3169 3174 3177 3179 3182
3126 3124 3121 3120 3118 3116 3114 3114 3113 3112 3113 3112 3114 3116 3120 3121 3127 3132 3137 3143 3147 3151 3154 3155 3155 3157 3160 3162 3165 3164 3163 3163 3163 3163 3163 3164 3161 3160 3162 3164 3168 3171 3174 3178 3181
3123 3121 3119 3117 3116 3113 3111 3110 3109 3108 3108 3109 3110 3115 3115 3115 3118 3122 3128 3137 3142 3146 3150 3151 3153 3154 3156 3158 3161 3162 3162 3161 3161 3163 3163 3161 3159 3159 3160 3164 3168 3170 3172 3177 3179
3121 3118 3116 3114 3113 3110 3109 3109 3108 3106 3103 3105 3106 3108 3110 3112 3115 3118 3123 3130 3135 3139 3142 3147 3149 3149 3154 3156 3159 3160 3161 3160 3160 3161 3162 3159 3158 3160 3161 3163 3165 3168 3171 3173 3177
3119 3116 3114 3111 3109 3107 3106 3105 3103 3102 3101 3101 3102 3104 3107 3107 3110 3113 3118 3123 3128 3132 3138 3142 3140 3148 3151 3154 3157 3159 3159 3159 3159 3159 3161 3159 3157 3158 3160 3163 3164 3167 3169 3170 3174
3117 3114 3112 3108 3107 3105 3105 3104 3102 3101 3099 3099 3097 3099 3103 3103 3106 3110 3114 3117 3122 3128 3131 3134 3140 3147 3148 3151 3155 3157 3158 3159 3160 3159 3159 3159 3157 3155 3156 3161 3163 3163 3167 3170 3172
3114 3111 3109 3107 3106 3103 3103 3102 3101 3101 3099 3097 3094 3095 3097 3099 3102 3107 3109 3116 3119 3122 3128 3131 3137 3140 3144 3146 3152 3154 3156 3158 3158 3156 3158 3157 3157 3154 3153 3157 3158 3160 3162 3165 3168
3111 3107 3104 3103 3102 3101 3102 3101 3101 3101 3100 3098 3095 3095 3093 3095 3098 3102 3107 3110 3112 3116 3124 3124 3129 3134 3137 3142 3149 3149 3155 3156 3156 3155 3154 3154 3155 3150 3151 3152 3153 3156 3159 3162 3165
3108 3104 3101 3100 3099 3099 3099 3099 3100 3102 3096 3094 3093 3092 3092 3091 3095 3099 3103 3107 3111 3115 3117 3121 3126 3130 3134 3140 3145 3147 3151 3153 3153 3154 3151 3151 3155 3143 3145 3146 3151 3153 3155 3158 3161
3107 3103 3100 3098 3097 3097 3097 3098 3101 3099 3097 3095 3091 3089 3088 3089 3092 3095 3099 3103 3106 3110 3112 3117 3119 3124 3130 3134 3140 3143 3149 3151 3152 3152 3147 3148 3150 3140 3141 3145 3149 3152 3154 3157 3159
3106 3102 3099 3098 3096 3096 3096 3099 3100 3099 3097 3095 3092 3090 3087 3088 3090 3092 3095 3098 3102 3105 3109 3112 3116 3117 3122 3125 3133 3138 3143 3146 3151 3149 3144 3147 3142 3136 3139 3141 3143 3149 3154 3156 3159
3106 3103 3100 3098 3097 3097 3097 3097 3099 3099 3097 3093 3091 3090 3089 3089 3089 3088 3092 3097 3100 3103 3106 3107 3109 3113 3117 3122 3129 3131 3135 3142 3144 3143 3145 3142 3136 3136 3135 3135 3138 3142 3150 3152 3155
3106 3104 3101 3099 3098 3098 3098 3098 3099 3097 3095 3094 3093 3093 3091 3089 3089 3088 3092 3094 3096 3098 3100 3104 3107 3108 3113 3119 3122 3125 3132 3136 3137 3141 3144 3136 3134 3134 3133 3131 3132 3138 3144 3149 3153
3106 3104 3103 3100 3100 3099 3098 3098 3097 3096 3095 3094 3093 3092 3093 3092 3091 3091 3091 3094 3093 3092 3095 3099 3103 3106 3108 3108 3114 3119 3123 3129 3132 3132 3133 3139 3131 3131 3131 3132 3133 3136 3141 3146 3151
3104 3104 3103 3102 3102 3100 3099 3097 3097 3096 3095 3094 3093 3092 3092 3092 3092 3092 3091 3091 3090 3090 3090 3093 3097 3100 3103 3107 3111 3114 3118 3122 3124 3128 3129 3129 3130 3127 3127 3129 3132 3136 3140 3143 3148
3104 3104 3102 3101 3101 3099 3099 3098 3095 3094 3093 3092 3092 3091 3090 3090 3092 3090 3090 3090 3090 3089 3090 3091 3092 3096 3099 3103 3104 3105 3109 3114 3118 3121 3122 3127 3126 3126 3127 3129 3131 3134 3139 3141 3144
3104 3103 3101 3100 3099 3098 3097 3096 3095 3093 3091 3091 3089 3089 3089 3088 3088 3088 3088 3088 3088 3088 3089 3090 3090 3090 3092 3097 3100 3101 3104 3108 3111 3112 3115 3118 3123 3123 3124 3126 3128 3130 3134 3139 3143
3102 3100 3099 3097 3097 3096 3096 3094 3093 3091 3090 3087 3085 3084 3084 3083 3084 3084 3084 3085 3086 3087 3088 3088 3089 3090 3089 3092 3095 3097 3099 3101 3104 3106 3108 3114 3117 3119 3121 3123 3124 3126 3129 3134 3137
3100 3099 3097 3095 3094 3094 3093 3092 3090 3088 3085 3083 3081 3080 3080 3079 3080 3078 3080 3081 3083 3084 3085 3086 3087 3088 3088 3089 3092 3093 3096 3097 3099 3101 3104 3108 3112 3114 3116 3120 3122 3124 3128 3132 3135
3099 3097 3095 3094 3093 3092 3091 3089 3087 3084 3083 3080 3077 3075 3075 3074 3073 3075 3076 3078 3081 3080 3082 3084 3084 3086 3085 3085 3089 3092 3092 3093 3094 3096 3099 3102 3107 3111 3114 3116 3118 3121 3126 3129 3132